一网星座-0398星 (ONEWEB-0398 )

导读 | 星芒AI

ONEWEB-0398 是 OneWeb 卫星星座计划中的一颗低轨通信卫星,旨在为全球提供高速互联网服务。该卫星于2023年发射,属于OneWeb第二代卫星系列,具备更高容量和更先进通信技术。其部署有助于扩大覆盖范围,特别是在偏远和网络基础设施薄弱地区。该星座计划由数百颗卫星组成,致力于实现全球无缝宽带连接。ONEWEB-0398 的成功运行对提升OneWeb的网络性能和用户体验具有重要意义。

基本信息
目录编号:
50478
目录名称:
ONEWEB-0398
国际标识:
2021-132K
轨道中心:
EARTH
卫星名称:
一网星座-0398星
卫星全名:
一网星座-0398星 (ONEWEB-0398 )
卫星状态:
在轨 (已飞行1449 天)
发射日期:
2021-12-27 UTC
国别 :
英国 (GB)
星等 :
--
轨道信息
数据来源 国际轨道数据
星历时间: 2025-12-15T01:24:47+0800
1天前
查看轨道信息
半长轴: 7595.826km
偏心率: 0.0001299
轨道倾角: 87.886°
近地点辐角 100.546°
升交点赤经 57.782°
平近点角 259.582°
近地点: 1216.704km
远地点: 1218.678km
周期: 109.805分钟
每日圈数: 13.114154
详细信息
平衡模式:
三轴稳定
覆盖范围:
全球
运营商:
一网卫星公司
运营商所在国:
英国
制造商(研发单位):
一网卫星公司
制造商所在国:
英国
使用方式:
暂无
卫星简介
OneWeb卫星网络由648颗重约125公斤的微型卫星组成,运行在1200公里的轨道上。 每颗卫星都能够提供至少每秒8千兆位的吞吐量,以使用其高吞吐量的Ku频段有效载荷为家庭和移动平台提供互联网接入。该卫星仍在工作。
2D轨道图
3D轨道图
轨道高度分析图
轨道倾角分析图
轨道综合分析图
查看轨道综合分析图